Flag for Canada Weather past 2 weeks in Strathcona County, Alberta, Canada

Now
71 °F

Mild.


Feels Like: 77 °F
Forecast: 53 / 69 °F
Wind: 10 mph from Northwest

Location: Edmonton Municipal

Current Time: Jul 4, 2015 at 1:26:37 PM

Latest Report: Jul 4, 2015 at 1:00 PM


Visibility: N/A

Pressure: 29.93 "Hg (27.50 "Hg at 728m altitude)

Humidity: 34%

Dew point: 41 °F

Location of Strathcona CountyLocation

Historic Weather in Strathcona County — Graph

°F

Strathcona County temperature yesterday

Maximum temperature yesterday: 81 °F (at 12:00 PM)
Minimum temperature yesterday: 64 °F (at 6:00 AM)
Average temperature yesterday: 74 °F

Past Weeks' High & Low Weather Summary

 TemperatureHumidityPressure
High89 °F (Jun 28, 4:00 PM)97% (Jun 19, 8:00 PM)30.09 "Hg (Jun 19, 8:00 PM)
Low47 °F (Jun 20, 5:00 AM)13% (Jul 3, 7:00 PM)29.76 "Hg (Jul 3, 8:00 PM)
Average68 °F55%29.97 "Hg
* Reported Jun 19 12:00 Noon — Jul 4 12:00 Noon, Strathcona County, Weather by CustomWeather, © 2015

Note: Actual official high and low records may vary slightly from our data, if they occured in-between our weather recording intervals... More about our weather records

Advertising

Strathcona County weather history for previous 24 hours

 ConditionsComfort  
Time TempWeatherWind HumidityBarometerVisibility
12:00 PM
Sat, Jul 4
70 °FMild.8 mph36%29.93 "HgN/A
11:00 AM67 °FMild.6 mph42%29.93 "HgN/A
10:00 AM66 °FMild.7 mph40%29.92 "HgN/A
9:00 AM64 °FMild.8 mph46%29.92 "HgN/A
8:00 AM62 °FMild.7 mph46%29.92 "HgN/A
7:00 AM60 °FRefreshingly cool.10 mph53%29.90 "HgN/A
6:00 AM61 °FRefreshingly cool.5 mph50%29.88 "HgN/A
5:00 AM62 °FRefreshingly cool.7 mph47%29.88 "HgN/A
4:00 AM64 °FMild.6 mph40%29.87 "HgN/A
3:00 AM64 °FMild.6 mph41%29.86 "HgN/A
2:00 AM65 °FMild.5 mph39%29.85 "HgN/A
1:00 AM66 °FMild.3 mph40%29.86 "HgN/A
12:00 AM66 °FMild.1 mph41%29.84 "HgN/A
11:00 PM
Fri, Jul 3
67 °FMild.7 mph38%29.82 "HgN/A
10:00 PM74 °FMild.6 mph26%29.80 "HgN/A
9:00 PM78 °FPleasantly warm.7 mph18%29.78 "HgN/A
8:00 PM78 °FPleasantly warm.10 mph14%29.76 "HgN/A
7:00 PM81 °FPleasantly warm.10 mph13%29.78 "HgN/A
6:00 PM80 °FPleasantly warm.12 mph15%29.79 "HgN/A
5:00 PM80 °FPleasantly warm.15 mph22%29.80 "HgN/A
4:00 PM77 °FPleasantly warm.9 mph30%29.82 "HgN/A
3:00 PM78 °FPleasantly warm.14 mph27%29.82 "HgN/A
2:00 PM81 °FPleasantly warm.13 mph28%29.82 "HgN/A
1:00 PM81 °FPleasantly warm.14 mph29%29.82 "HgN/A
Weather by CustomWeather, © 2015

See weather overviewHow to use our weather pages